{"data":{"norad_id":45088,"epoch":"2026-09-20T03:33:39.921408Z","epoch_age_seconds":45080,"freshness":"FRESH","line1":"1 45088U 20006AW  26263.14837872  .00041129  00000+0  91092-3 0  9992","line2":"2 45088  53.1535  51.6951 0000606  46.2478 313.8578 15.43399465366963","mean_motion":15.43399465,"eccentricity":6.06e-5,"inclination_deg":53.1535,"raan_deg":51.6951,"arg_perigee_deg":46.2478,"mean_anomaly_deg":313.8578,"bstar":0.00091092,"rev_number":36696,"period_min":93.300537719183,"perigee_km":435.67204926904,"apogee_km":436.49793297436,"semimajor_km":6814.2219911217,"source":"CELESTRAK","updated_at":"2026-09-20T09:00:38.224990Z"}}